User: anonymous   Login
Location: Pcim
(49.7500°N, 19.9670°E)
Time: 23:58:38
(UTC+02:00)
Language:

BEESAT - Orbit

View from above orbital plane
View from above orbital plane
View from above satellite
View from above satellite

Ground track
Ground track

The orbit data is extracted from the following two-line orbital elements,

1 35933U 09051C   24115.45975447  .00002949  00000-0  64381-3 0  9995
2 35933  98.4712 358.6666 0006562 128.2458 231.9332 14.58601687774877
Epoch (UTC): 24 April 2024 11:02:02
Eccentricity: 0.0006562
inclination: 98.4712°
perigee height: 693 km
apogee height: 702 km
right ascension of ascending node: 358.6666°
argument of perigee: 128.2458°
revolutions per day: 14.58601687
mean anomaly at epoch: 231.9332°
orbit number at epoch: 77487

The dashed part of the orbit path shows where the satellite is in the earth's shadow,  

DLR